Home   Weather   Darwin   Past weeks

Flag for Australia Past Weather in Darwin, Northern Territory, Australia — Yesterday and Last 2 Weeks

Now
91 °F

Broken clouds.


Feels Like: 96 °F
Forecast: 78 / 90 °F
Wind: 10 mph from East

Location: Darwin Airport

Current Time: Apr 25, 2017 at 4:21:54 pm

Latest Report: Apr 25, 2017 at 3:30 pm


Visibility: N/A

Pressure: 29.77 "Hg

Humidity: 46%

Dew Point: 68 °F

Location of DarwinLocation

Past Weather in Darwin — Graph

°F

Darwin Temperature Yesterday

Maximum temperature yesterday: 93 °F (at 2:00 pm)
Minimum temperature yesterday: 77 °F (at 12:30 am)
Average temperature yesterday: 83 °F

High & Low Weather Summary for the Past Weeks

 TemperatureHumidityPressure
High93 °F (Apr 24, 2:00 pm)100% (Apr 11, 10:30 am)29.95 "Hg (Apr 11, 10:30 am)
Low64 °F (Apr 11, 4:00 pm)36% (Apr 24, 2:30 pm)29.62 "Hg (Apr 10, 3:30 pm)
Average81 °F79%29.83 "Hg
* Reported Apr 10 2:30 pm — Apr 25 3:00 pm, Darwin, Weather by CustomWeather, © 2017

Note: Actual official high and low records may vary slightly from our data, if they occured in-between our weather recording intervals... More about our weather records

Advertising

Darwin Weather History for the Previous 24 Hours

Scroll right to see more
 ConditionsComfort  
Time TempWeatherWind HumidityBarometerVisibility
3:00 pm
Tue, Apr 25
91 °FBroken clouds.10 mph44%29.77 "HgN/A
2:30 pm91 °FBroken clouds.14 mph41%29.77 "HgN/A
2:00 pm91 °FBroken clouds.12 mph41%29.80 "HgN/A
1:00 pm90 °FBroken clouds.8 mph46%29.83 "HgN/A
12:00 pm88 °FBroken clouds.8 mph59%29.86 "HgN/A
11:00 am86 °FScattered clouds.6 mph62%29.89 "HgN/A
10:30 am86 °FScattered clouds.5 mph66%29.89 "HgN/A
9:30 am84 °FPassing clouds.6 mph79%29.89 "HgN/A
9:00 am84 °FPassing clouds.5 mph79%29.86 "HgN/A
8:00 am79 °FScattered clouds.5 mph94%29.86 "HgN/A
7:30 am77 °FScattered clouds.3 mph94%29.86 "HgN/A
7:00 am75 °FPassing clouds.2 mph100%29.83 "HgN/A
6:30 am75 °FPassing clouds.2 mph100%29.83 "HgN/A
5:30 am77 °FClear.No wind94%29.83 "Hg10 mi
5:00 am77 °FClear.1 mph94%29.83 "Hg10 mi
4:30 am77 °FPassing clouds.1 mph94%29.83 "HgN/A
4:00 am77 °FPassing clouds.1 mph94%29.83 "HgN/A
3:30 am79 °FPassing clouds.2 mph89%29.83 "HgN/A
3:00 am79 °FPassing clouds.2 mph89%29.83 "HgN/A
2:30 am79 °FPartly cloudy.3 mph89%29.83 "HgN/A
2:00 am79 °FPassing clouds.No wind89%29.83 "HgN/A
1:30 am79 °FPassing clouds.No wind89%29.86 "HgN/A
1:00 am79 °FPassing clouds.No wind89%29.86 "HgN/A
12:30 am79 °FClear.1 mph89%29.86 "Hg10 mi
12:00 am79 °FClear.3 mph89%29.86 "Hg10 mi
11:30 pm
Mon, Apr 24
79 °FClear.2 mph89%29.89 "Hg10 mi
11:00 pm79 °FClear.2 mph89%29.89 "Hg10 mi
10:30 pm79 °FClear.2 mph89%29.89 "Hg10 mi
10:00 pm81 °FClear.2 mph89%29.89 "Hg10 mi
9:30 pm81 °FClear.3 mph84%29.89 "Hg10 mi
9:00 pm81 °FClear.3 mph84%29.89 "Hg10 mi
8:30 pm82 °FClear.3 mph79%29.86 "Hg10 mi
8:00 pm82 °FClear.3 mph79%29.86 "Hg10 mi
7:30 pm84 °FClear.5 mph74%29.83 "Hg10 mi
7:00 pm84 °FSunny.5 mph74%29.83 "Hg10 mi
6:30 pm84 °FSunny.7 mph74%29.80 "Hg10 mi
6:00 pm86 °FSunny.7 mph70%29.80 "Hg10 mi
5:30 pm88 °FSunny.7 mph62%29.80 "Hg10 mi
5:00 pm88 °FSunny.9 mph62%29.80 "Hg10 mi
4:30 pm88 °FSunny.8 mph62%29.77 "Hg10 mi
4:00 pm91 °FSunny.6 mph36%29.77 "Hg10 mi
Weather by CustomWeather, © 2017

See weather overviewHow to use our weather pages